Location: Canazei
(46.4667°N, 11.7667°E)
Time: 06:15:31
(UTC+00:00)

Cosmos 2218 Rocket - Pass Details

Date: 21 April 2021
Orbit: 955 x 1007 km, 82.9° (Epoch: 15 May)

Event Time Altitude Azimuth Distance (km) Brightness Sun altitude
Rises 00:58:05 0° 348° (NNW) 3,649 7.7 -27.0°
Reaches altitude 10° 01:00:36 10° 345° (NNW) 2,702 6.8 -26.8°
Maximum altitude 01:06:39 60° 267° (W) 1,096 4.0 -26.2°
Enters shadow 01:06:59 59° 252° (WSW) 1,104 4.0 -26.2°
